Lid_Strength_Index
9 11 13 12 9 9 7 6 5 6 4 5 6 3 3 1 1 0 0 -0 -0 -1 -1 -1 -1 -1 -1 -1 -1 -1 -1 -1
11 12 9 9 7 7 8 6 4 5 7 4 2 3 2 1 1 1 0 -0 -1 -1 -1 -1 -1 -1 -1 -1 -1 -1 -1 -1
11 10 8 7 6 6 6 6 5 5 8 6 3 2 2 1 1 1 0 -0 -0 -1 -1 -1 -1 -1 -1 -1 -1 -1 -1 -1
12 10 8 7 6 5 6 6 5 7 7 6 2 2 1 1 2 0 0 -0 -0 -1 -1 -1 -1 -1 -1 -1 -1 -1 -1 -1
11 10 9 7 6 6 6 6 6 5 8 5 3 2 1 1 1 0 0 -0 -0 -0 -1 -2 -1 -1 -1 -1 -1 -1 -1 -1
11 10 11 8 5 5 6 6 3 3 8 8 3 2 2 1 1 1 0 0 0 0 -0 0 -0 -1 -1 -1 -2 -1 -1 -2
11 11 9 8 8 5 4 5 4 4 5 3 2 1 3 2 2 1 1 1 1 0 0 0 0 -1 -1 -1 -1 -1 -1 -2
9 8 9 9 8 5 4 5 6 5 4 2 2 2 3 4 3 3 2 1 1 1 1 0 -0 -0 0 -0 -0 -0 -0 -0
7 7 8 9 8 7 6 7 6 7 5 4 3 3 3 3 3 2 2 2 1 1 1 0 0 -0 -0 -0 -0 -0 0 -0
8 7 10 9 8 8 7 6 4 4 4 3 4 4 4 3 3 2 2 2 1 1 1 1 -0 0 0 0 0 -0 -0 -0
7 9 10 9 10 10 7 4 3 4 3 4 4 3 3 3 2 2 2 2 2 1 1 0 0 0 0 0 0 -0 0 -0
9 9 10 11 10 9 5 4 4 4 5 5 4 4 3 3 3 3 2 2 1 1 1 0 0 0 0 0 0 0 -0 -0
10 10 10 9 11 10 6 4 5 4 5 5 4 3 3 3 3 3 2 1 2 1 1 1 0 0 0 0 0 0 0 -0
10 9 8 9 12 7 5 5 6 5 5 5 4 4 3 2 2 2 2 1 1 0 1 1 1 1 1 0 1 0 0 -0
10 8 8 9 10 7 6 6 7 6 6 5 5 4 4 3 2 2 2 2 2 1 1 1 1 1 0 0 1 1 0 -0
11 10 9 10 9 7 6 6 7 7 6 6 5 5 4 4 3 2 1 2 2 1 1 1 1 1 1 1 1 1 0 0
10 8 9 10 9 8 7 7 7 7 6 6 6 4 4 3 3 3 2 2 2 2 1 1 2 2 2 2 2 1 1 1
8 7 8 9 10 8 7 7 7 7 7 6 6 5 4 3 3 3 3 2 3 2 2 1 1 1 1 1 2 1 0 1
12 9 9 10 10 9 8 7 6 6 6 5 5 5 5 4 3 4 4 3 3 4 4 4 2 1 1 1 1 2 1 1
12 13 16 11 15 11 10 9 8 7 7 6 5 5 4 4 4 3 4 5 4 4 5 5 5 4 3 3 3 2 3 3